Skip Page Navigation
NASA JPL Caltech
NASA Logo - Jet Propulsion Laboratory + View the NASA Portal
+ Center for Near-Earth Object Studies
JPL Home Earth Solar System Stars & Galaxies Technology
JPL Solar System Dynamics
BODIES ORBITS EPHEMERIDES TOOLS PHYSICAL DATA DISCOVERY FAQ SITE MAP
JPL Small-Body Database Browser
Search: [ help ]  
(2020 VT4)
Classification: Apollo [NEO]          SPK-ID: 54087809
Ephemeris | Orbit Diagram | Orbital Elements | Mission Design | Physical Parameters | Close-Approach Data ]

[ show orbit diagram ]
Orbital Elements at Epoch 2459000.5 (2020-May-31.0) TDB
Reference: JPL 4 (heliocentric ecliptic J2000)
 Element Value Uncertainty (1-sigma)   Units 
e .2464855429334065 0.00011742  
a 1.313074906750515 0.00020268 au
q .989420925447882 1.6158e-06 au
i 12.91916597534899 0.0063694 deg
node 231.5802447825618 0.00011685 deg
peri 180.8059202404413 0.035191 deg
M 250.2722371148244 0.011337 deg
tp 2459168.012300868707
(2020-Nov-14.51230087)
0.031388 TDB
period 549.5822272057079
1.50
0.12725
0.0003484
d
yr
n .6550430166389869 0.00015167 deg/d
Q 1.636728888053147 0.00025264 au
  Orbit Determination Parameters
   # obs. used (total)      34  
   data-arc span      5 days  
   first obs. used      2020-11-14  
   last obs. used      2020-11-19  
   planetary ephem.      DE431  
   SB-pert. ephem.      SB431-N16  
   condition code      5  
   norm. resid. RMS      .41425  
   source      ORB  
   producer      Otto Matic  
   solution date      2020-Nov-19 05:21:44  

Additional Information
 Earth MOID = .000561539 au 
 Jupiter MOID = 3.718 au 
 T_jup = 4.912 
[ show covariance matrix ]

Ephemeris | Orbit Diagram | Orbital Elements | Mission Design | Physical Parameters | Close-Approach Data ]

Physical Parameter Table
Parameter Symbol Value Units Sigma Reference Notes
absolute magnitude H 28.661   .48648 4 autocmod 2.8

[ hide close-approach data ]
Close-Approach Data   ...sorted by Date/Time (TDB)
Date/Time (TDB) Time Uncertainty
(days_HH:MM)
Body Nominal Distance (au) Minimum Distance (au) Maximum Distance (au) V-relative (km/s) V-infinity (km/s) JD (TDB) Time Uncertainty (minutes) Semi-major axis (km) Semi-minor axis (km) range-LOV angle (deg) N-sigma BP Orbit Ref. Reference Modified
1937-Nov-17 04:15 6_09:39 Earth 0.0243204365389483 0.00257661753833173 0.0737241061616537 7.98049109985304 7.96675114217266 2428854.677212561 9219.08678181759 2468307.47762986 1052.07313142777 6.21615518443437 377.900131559799 T 4 CATAB v2.0f-lin.ifort 2020-Nov-19 05:21:45 2020-Nov-19 05:21
1940-Nov-26 20:10 7_12:38 Earth 0.104467792542209 0.0427725019340172 0.170283901229946 8.80314365796524 8.80024588981428 2429960.340031619 10838.0517156209 3344964.60713401 2158.36293556648 14.2846930672293 1975.16469892941 T 4 CATAB v2.0f-lin.ifort 2020-Nov-19 05:21:45 2020-Nov-19 05:21
1943-Dec-08 03:21 6_22:23 Earth 0.202542658385359 0.133014589243088 0.273723007975717 10.7287538775912 10.7275276491423 2431066.639308550 9983.39640926029 3625184.34449866 2052.26448344426 13.6868628401864 3648.27577772765 T 4 CATAB v2.0f-lin.ifort 2020-Nov-19 05:21:45 2020-Nov-19 05:21
1946-Dec-17 11:59 5_19:51 Earth 0.309487745676729 0.23749184192134 0.382485488732056 13.3952045970715 13.394561865006 2432171.999497630 8390.80137659446 3720317.90508689 1164.23932172625 13.2849514284612 9628.08597902179 T 4 CATAB v2.0f-lin.ifort 2020-Nov-19 05:21:45 2020-Nov-19 05:21
1949-Jul-21 05:03 8_03:16 Earth 0.472651722946906 0.449795206590971 0.497230106303391 6.50641828681114 6.50555180779324 2433118.710076975 11715.9062300715 1850568.29540951 3652.13888163755 50.2228100812145 3677.5972277234 T 4 CATAB v2.0f-lin.ifort 2020-Nov-19 05:21:45 2020-Nov-19 05:21
1949-Dec-25 21:13 5_04:00 Earth 0.423146806038244 0.351087868119392 0.495885755702351 16.5409096643433 16.5405289783505 2433276.383985629 7440.02084856713 3708053.98762822 897.726519173947 12.9996163669963 10981.8724358597 T 4 CATAB v2.0f-lin.ifort 2020-Nov-19 05:21:45 2020-Nov-19 05:21
2005-Sep-24 01:41 2_12:45 Earth 0.441733735253785 0.411352641348396 0.472296819485845 16.6236311335898 16.623268280659 2453637.570370277 3644.96972435907 1583943.02429019 9562.4816485136 -16.3639007811761 1610.90917636351 T 4 CATAB v2.0f-lin.ifort 2020-Nov-19 05:21:45 2020-Nov-19 05:21
2006-Mar-04 02:58 3_09:53 Earth 0.477926603569391 0.467798138082936 0.488054814136888 6.7919619014974 6.79114101680892 2453798.623694360 4913.42183622704 504759.283774907 4231.43733148427 -0.322608808127012 58.5180210982786 T 4 CATAB v2.0f-lin.ifort 2020-Nov-19 05:21:45 2020-Nov-19 05:21
2008-Oct-03 15:04 2_13:56 Earth 0.335216398296115 0.308247941358622 0.362500462690993 13.6388574685533 13.6382746701016 2454743.127623274 3716.22072806048 1446683.97432459 8691.91399382494 -20.7066612327631 1657.88277677018 T 4 CATAB v2.0f-lin.ifort 2020-Nov-19 05:21:45 2020-Nov-19 05:21
2009-Feb-17 13:58 4_23:08 Earth 0.437236553141632 0.425591094120024 0.448969138911461 5.11068309419777 5.10949056886102 2454880.082170157 7148.01781433189 659185.965025401 7732.21157685868 28.0541372438274 1331.84416011974 T 4 CATAB v2.0f-lin.ifort 2020-Nov-19 05:21:45 2020-Nov-19 05:21
2011-Oct-15 00:11 2_16:17 Earth 0.233494403501573 0.210692532831784 0.256900635829699 11.0502182981903 11.0491855716981 2455849.507337149 3856.66688371427 1295577.77252018 7886.59396506938 -27.0861401190888 1652.68695910073 T 4 CATAB v2.0f-lin.ifort 2020-Nov-19 05:21:45 2020-Nov-19 05:21
2012-Jul-18 03:12 2_01:06 Mars 0.0862423102831863 0.0861740101643803 0.0882685415936046 7.04951222170384 7.04904130809325 2456126.633533209 2946.21726480937 881887.972125936 3027.92949173573 -89.233706432323 4034.331084913 T 4 CATAB v2.0f-lin.ifort 2020-Nov-19 05:21:45 2020-Nov-19 05:21
2014-Oct-26 17:32 2_10:35 Earth 0.137802770505302 0.119903792118068 0.156939584627694 9.05369053886099 9.05155464339966 2456957.230794014 3515.13705315685 1130453.03230403 6732.78748294774 -34.8739156212754 1476.98316244869 T 4 CATAB v2.0f-lin.ifort 2020-Nov-19 05:21:45 2020-Nov-19 05:21
2017-Nov-06 15:53 1_17:42 Earth 0.0542969521446144 0.0420997290168841 0.0670349279475544 8.05167552158283 8.04557853692801 2458064.161956047 2502.43547690809 678064.112316381 3661.0553456784 -22.8704710930494 784.478661665738 T 4 CATAB v2.0f-lin.ifort 2020-Nov-19 05:21:45 2020-Nov-19 05:21
2020-Jan-21 22:55 06:29 Mars 0.0891164694419381 0.0884424719372814 0.0900166546680227 7.2762391922309 7.27579766812094 2458870.454657680 388.772046772915 238412.743110546 11458.1358973527 80.9612382310984 1121.45752454554 T 4 CATAB v2.0f-lin.ifort 2020-Nov-19 05:21:45 2020-Nov-19 05:21
2020-Nov-13 16:52 < 00:01 Moon 0.00233577056611148 0.00233552389569709 0.00233601848081959 10.5384746924129 10.5371432013083 2459167.203121115 0.531293362176551 86.9076756947149 1.87648248790222 -81.9695084042486 100026.434045366 T 4 CATAB v2.0f-lin.ifort 2020-Nov-19 05:21:45 2020-Nov-19 05:21
2020-Nov-13 17:21 < 00:01 Earth 4.50910577263959e-05 4.50230730753348e-05 4.51593913067495e-05 13.4271197400916 7.88069684851022 2459167.222686313 0.709568892011263 9.53822175224922 1.76574162522 81.9183630203639 105.430827487126 T 4 CATAB v2.0f-lin.ifort 2020-Nov-19 05:21:45 2020-Nov-19 05:21
2021-Jun-01 21:27 01:07 Earth 0.277642159366788 0.277379851681371 0.27790452798647 9.60220234365089 9.60120285309882 2459367.393761661 66.9636385609125 14601.9326902649 218.037793790682 -26.4077372436459 48331.1933783051 T 4 CATAB v2.0f-lin.ifort 2020-Nov-19 05:21:45 2020-Nov-19 05:21
2022-Feb-19 18:51 00:34 Earth 0.445414857554394 0.445211308108681 0.445618528519147 19.3943082630759 19.393999818728 2459630.285274035 33.5045413065533 15428.3256042818 518.415714924144 48.8830304568129 78609.8646353293 T 4 CATAB v2.0f-lin.ifort 2020-Nov-19 05:21:45 2020-Nov-19 05:21
2026-Nov-22 13:27 01:27 Earth 0.34369258489515 0.341926322994561 0.345458851976999 17.5117789930981 17.5113362850509 2461367.060529652 87.4850761438876 88101.6036786547 55.4307878464862 -1.42943525881417 19252.2836679454 T 4 CATAB v2.0f-lin.ifort 2020-Nov-19 05:21:45 2020-Nov-19 05:21
2027-Jul-27 09:25 06:53 Earth 0.320294056909141 0.31997921560993 0.320608949051327 9.05254489416569 9.05162589559893 2461613.892410053 413.112125937081 16941.9827641725 211.205594581555 -22.1467583740425 55173.4269748233 T 4 CATAB v2.0f-lin.ifort 2020-Nov-19 05:21:45 2020-Nov-19 05:21
2028-Mar-11 13:42 02:45 Earth 0.16998930332883 0.16922814169524 0.170761310253075 9.17968152237231 9.17797385395768 2461842.071005355 165.404174358529 77764.5329625755 521.4505994347 60.5708769875167 23987.637846922 T 4 CATAB v2.0f-lin.ifort 2020-Nov-19 05:21:45 2020-Nov-19 05:21
2033-Nov-27 05:54 18:42 Earth 0.122390017997086 0.119504021382135 0.125315590842036 6.14357546832264 6.14003084194568 2463928.745682555 1121.64604747639 181792.219159302 292.210997264182 37.1366175005526 24557.7416993043 T 4 CATAB v2.0f-lin.ifort 2020-Nov-19 05:21:45 2020-Nov-19 05:21
2034-May-11 00:08 13:30 Earth 0.23634893913514 0.235351070418718 0.237363984247366 8.6428720793796 8.64156761150075 2464093.505838549 809.562937496319 112319.572474402 329.629295475265 -63.4635971242019 45586.010561593 T 4 CATAB v2.0f-lin.ifort 2020-Nov-19 05:21:45 2020-Nov-19 05:21
2039-Nov-17 17:42 03:24 Earth 0.197111129416472 0.192436932481961 0.201785383384124 13.1595582650965 13.1585310134402 2466110.237632297 204.457109776183 233144.68686252 24.2480773380973 -1.45224820336081 23855.5633145339 T 4 CATAB v2.0f-lin.ifort 2020-Nov-19 05:21:45 2020-Nov-19 05:21
2040-Jul-02 13:07 16:19 Earth 0.315398830248847 0.315130795565138 0.315667582462327 9.90395761332058 9.9031045874381 2466338.046219832 979.311332932439 27250.5082607815 463.839334406484 -60.5858277090125 43450.9582142518 T 4 CATAB v2.0f-lin.ifort 2020-Nov-19 05:21:45 2020-Nov-19 05:21
